1508976000.66,25443,12.0,74004.5,-2.15,-21.39,-21.77,0,*58
1508976001.92,25444,12.0,74002.5,-2.15,-19.41,-17.63,0,*5B
1508976003.18,25445,12.0,73990.5,-2.15,-15.57,-17.25,0,*53
1508976004.41,25446,12.0,73976.0,-2.13,-15.53,-17.35,0,*53
1508976005.66,25447,12.0,73982.5,-2.15,-15.57,-13.79,0,*5C
1508976006.91,25448,12.0,73964.5,-2.15,-10.93,-10.67,0,*52
1508976008.15,25449,12.0,73990.3,-2.13,-9.79,-12.65,0,*69
1508976009.4,25450,12.0,74018.5,-2.13,-12.43,-16.27,0,*50
1508976010.66,25451,12.0,74016.5,-2.13,-13.79,-16.45,0,*5D
1508976011.91,25452,12.0,74016.8,-2.13,-14.29,-18.35,0,*55
1508976013.14,25453,12.0,74034.8,-2.13,-19.47,-26.49,0,*57
1508976014.42,25454,12.0,74022.5,-2.13,-27.83,-31.23,0,*5F
1508976015.71,25455,12.0,74010.3,-2.13,-30.89,-32.75,0,*52
1508976016.94,25456,12.0,74006.0,-2.15,-31.33,-33.09,0,*5D
1508976018.21,25457,12.0,74020.3,-2.13,-31.95,-31.45,0,*5C
1508976019.47,25458,12.0,74008.8,-2.15,-23.53,-24.21,0,*5A
1508976020.71,25459,12.0,74010.3,-2.15,-23.95,-20.29,0,*5D
1508976021.95,25460,12.0,74000.0,-2.15,-15.29,-12.61,0,*58
1508976023.18,25461,12.0,73998.5,-2.15,-12.61,-13.23,0,*55
1508976024.44,25462,12.0,74018.3,-2.15,-14.55,-11.73,0,*50
1508976025.67,25463,12.0,73952.5,-2.15,-10.49,-9.49,0,*68
1508976026.94,25464,12.0,73962.5,-2.17,-9.41,-9.49,0,*5D
1508976028.2,25465,12.0,73964.5,-2.17,-9.53,-8.03,0,*50
1508976029.42,25466,12.0,73946.8,-2.15,-7.35,-7.53,0,*55
1508976030.65,25467,12.0,73964.5,-2.15,-7.27,-11.15,0,*62
1508976031.87,25468,12.0,73972.5,-2.15,-11.73,-18.17,0,*50
1508976033.14,25469,12.0,73968.3,-2.17,-14.15,-15.01,0,*5C
1508976034.42,25470,12.0,73980.8,-2.13,-10.71,-12.11,0,*50
1508976035.66,25471,12.0,73980.3,-2.15,-12.79,-14.19,0,*53
1508976036.87,25472,12.0,73954.5,-2.15,-10.93,-15.11,0,*5F
1508976038.07,25473,12.0,74006.5,-2.15,-15.99,-20.29,0,*5C
1508976039.34,25474,12.0,74008.0,-2.15,-18.31,-21.83,0,*55
1508976040.56,25475,12.0,74004.5,-2.13,-23.39,-22.87,0,*55
1508976041.76,25476,12.0,74002.5,-2.15,-23.39,-21.09,0,*55
1508976043.0,25477,12.0,74004.8,-2.15,-19.95,-24.67,0,*56
1508976044.23,25478,12.0,73992.3,-2.15,-21.83,-21.17,0,*57
1508976045.5,25479,12.0,74002.8,-2.15,-18.31,-21.03,0,*50
1508976046.75,25480,12.0,74010.5,-2.15,-19.37,-24.21,0,*54
1508976047.95,25481,12.0,74008.0,-2.15,-30.23,-32.39,0,*55
1508976049.21,25482,12.0,74010.8,-2.15,-30.95,-32.97,0,*5F
1508976050.45,25483,12.0,74020.3,-2.15,-31.23,-33.15,0,*59
1508976051.67,25484,12.0,74012.0,-2.15,-30.27,-32.51,0,*5A
1508976052.9,25485,12.0,74034.5,-2.15,-31.17,-33.31,0,*5E
1508976054.16,25486,12.0,74010.8,-2.17,-31.33,-33.31,0,*59
1508976055.42,25487,12.0,74012.3,-2.17,-32.07,-32.51,0,*5B
1508976056.65,25488,12.0,74004.5,-2.19,-30.27,-31.73,0,*59
1508976057.88,25489,12.0,74000.3,-2.17,-27.55,-29.61,0,*5F
1508976059.15,25490,12.0,73996.3,-2.17,-30.05,-31.85,0,*57
1508976060.41,25491,12.0,74010.8,-2.17,-29.95,-32.19,0,*51
1508976061.66,25492,12.0,74010.0,-2.19,-30.55,-31.73,0,*57
1508976062.89,25493,12.0,74012.8,-2.19,-31.17,-33.31,0,*55
1508976064.12,25494,12.0,74026.0,-2.19,-32.07,-33.37,0,*56
1508976065.34,25495,12.0,74040.5,-2.19,-30.55,-29.61,0,*5A
1508976066.61,25496,12.0,73964.8,-2.21,-22.47,-22.97,0,*50
1508976067.84,25497,12.0,74026.5,-2.23,-25.65,-27.23,0,*5E
1508976069.04,25498,12.0,73984.5,-2.19,-20.93,-21.43,0,*54
1508976070.31,25499,12.0,74004.8,-2.23,-18.35,-19.57,0,*55
1508976071.59,25500,12.0,74006.5,-2.21,-19.41,-21.97,0,*53
1508976072.85,25501,12.0,74022.8,-2.21,-18.93,-24.31,0,*55
1508976074.12,25502,12.0,74022.5,-2.21,-28.21,-29.45,0,*52
1508976075.41,25503,12.0,74030.0,-2.21,-27.61,-28.59,0,*54
1508976076.67,25504,12.0,74024.3,-2.21,-27.03,-30.17,0,*54
1508976077.91,25505,12.0,74034.0,-2.21,-31.05,-30.67,0,*53
1508976079.15,25506,12.0,74040.0,-2.23,-28.69,-25.29,0,*5E
1508976080.38,25507,12.0,74042.3,-2.23,-25.29,-22.97,0,*54
1508976081.63,25508,12.0,74040.0,-2.23,-22.47,-16.83,0,*56
1508976082.84,25509,12.0,74012.5,-2.23,-17.49,-14.37,0,*52
1508976084.11,25510,12.0,73992.8,-2.21,-13.51,-11.07,0,*53
1508976085.36,25511,12.0,73988.8,-2.21,-11.07,-9.67,0,*6C
1508976086.6,25512,12.0,73994.3,-2.23,-10.15,-9.49,0,*63
1508976087.82,25513,12.0,74000.5,-2.21,-8.59,-8.21,0,*5E
1508976089.07,25514,12.0,73994.3,-2.21,-8.37,-7.65,0,*5E
1508976090.34,25515,12.0,74006.5,-2.21,-7.31,-7.01,0,*54
1508976091.53,25516,12.0,74006.5,-2.23,-6.35,-8.67,0,*5F
1508976092.8,25517,12.0,74014.5,-2.21,-9.15,-12.43,0,*6C
1508976094.03,25518,12.0,74014.8,-2.21,-13.65,-16.83,0,*57
1508976095.3,25519,12.0,74022.3,-2.21,-19.23,-22.63,0,*57
1508976096.54,25520,12.0,73976.5,-2.19,-20.15,-16.51,0,*5F
1508976097.74,25521,12.0,73964.5,-2.19,-13.47,-13.65,0,*5B
1508976098.97,25522,12.0,73972.0,-2.19,-13.29,-15.75,0,*57
1508976100.18,25523,12.0,73956.8,-2.19,-19.37,-21.09,0,*5F
1508976101.38,25524,12.0,73978.5,-2.19,-22.03,-27.77,0,*58
1508976102.63,25525,12.0,73988.3,-2.19,-28.75,-31.39,0,*5F
1508976103.88,25526,12.0,73976.0,-2.19,-28.75,-31.39,0,*5C
1508976105.17,25527,12.0,73986.0,-2.21,-30.51,-31.61,0,*54
1508976106.43,25528,12.0,73982.0,-2.21,-30.67,-32.45,0,*5B
1508976107.69,25529,12.0,73970.3,-2.21,-31.01,-32.85,0,*57
1508976108.91,25530,12.0,73978.3,-2.21,-31.01,-32.57,0,*50
1508976110.16,25531,12.0,73988.0,-2.21,-30.11,-31.73,0,*54
1508976111.39,25532,12.0,74006.8,-2.21,-30.33,-31.79,0,*5D
1508976112.67,25533,12.0,74014.8,-2.17,-30.39,-32.19,0,*56
1508976113.89,25534,12.0,74032.3,-2.19,-31.01,-32.63,0,*58
1508976115.17,25535,12.0,74026.5,-2.17,-30.51,-31.11,0,*55
1508976116.43,25536,12.0,73994.8,-2.17,-26.49,-28.91,0,*58
1508976117.66,25537,12.0,74008.0,-2.17,-27.51,-28.53,0,*5F
1508976118.89,25538,12.0,74026.5,-2.15,-30.45,-32.19,0,*54
1508976120.14,25539,12.0,73988.3,-2.15,-28.43,-28.75,0,*5B
1508976121.34,25540,12.0,73998.0,-2.15,-27.51,-29.07,0,*5D
1508976122.55,25541,12.0,74018.0,-2.15,-29.79,-32.35,0,*53
1508976123.81,25542,12.0,73996.3,-2.17,-31.29,-33.09,0,*50
1508976125.04,25543,12.0,74006.3,-2.17,-31.29,-32.91,0,*51
1508976126.28,25544,12.0,73988.8,-2.17,-26.03,-25.09,0,*5F
1508976127.54,25545,12.0,74002.0,-2.17,-23.29,-26.07,0,*5E
1508976128.77,25546,12.0,73992.8,-2.17,-23.75,-26.87,0,*5C
1508976130.03,25547,12.0,73990.0,-2.17,-26.17,-28.69,0,*52
1508976131.24,25548,12.0,74002.3,-2.19,-30.83,-33.03,0,*5F
1508976132.47,25549,12.0,73996.0,-2.19,-31.17,-32.85,0,*5D
1508976133.72,25550,12.0,74016.0,-2.17,-31.67,-33.49,0,*5D
1508976134.95,25551,12.0,74030.8,-2.19,-32.13,-33.49,0,*52
1508976136.18,25552,12.0,74028.5,-2.19,-31.17,-32.45,0,*5B
1508976137.46,25553,12.0,74000.3,-2.17,-31.57,-32.97,0,*5F
1508976138.68,25554,12.0,74008.0,-2.19,-32.13,-32.63,0,*5E
1508976139.89,25555,12.0,74010.3,-2.19,-31.79,-33.15,0,*50
1508976141.17,25556,12.0,74014.0,-2.17,-31.91,-33.27,0,*5A
1508976142.4,25557,12.0,74010.5,-2.19,-27.71,-28.59,0,*5F
1508976143.64,25558,12.0,74030.5,-2.19,-29.51,-31.79,0,*56
1508976144.9,25559,12.0,74026.5,-2.17,-31.57,-32.91,0,*53
1508976146.15,25560,12.0,74030.0,-2.17,-31.67,-33.31,0,*51
1508976147.38,25561,12.0,74024.5,-2.19,-31.23,-33.21,0,*5F
1508976148.61,25562,12.0,74032.0,-2.19,-31.33,-32.85,0,*52
1508976149.89,25563,12.0,74032.5,-2.17,-30.51,-28.21,0,*5D
1508976151.15,25564,12.0,74038.8,-2.17,-21.63,-22.31,0,*50
1508976152.41,25565,12.0,74040.0,-2.19,-20.79,-25.71,0,*56
1508976153.64,25566,12.0,74040.5,-2.19,-29.45,-31.91,0,*58
1508976154.9,25567,12.0,74058.8,-2.19,-31.39,-32.75,0,*52
1508976156.16,25568,12.0,74044.5,-2.19,-30.51,-25.71,0,*50
1508976157.39,25569,12.0,74018.8,-2.19,-20.99,-23.43,0,*53
1508976158.61,25570,12.0,74018.8,-2.19,-28.43,-29.07,0,*5E
1508976159.84,25571,12.0,74030.0,-2.17,-26.39,-27.51,0,*5F
1508976161.09,25572,12.0,74026.3,-2.17,-25.09,-26.55,0,*59
1508976162.35,25573,12.0,74028.8,-2.17,-27.71,-30.61,0,*55
1508976163.58,25574,12.0,74042.3,-2.19,-29.95,-31.73,0,*5A
1508976164.81,25575,12.0,74026.8,-2.19,-30.45,-30.89,0,*5A
1508976166.04,25576,12.0,74030.5,-2.19,-22.31,-18.79,0,*5C
1508976167.24,25577,12.0,74010.3,-2.19,-18.49,-12.93,0,*55
1508976168.45,25578,12.0,73996.8,-2.19,-10.85,-10.01,0,*5B
1508976169.68,25579,12.0,74002.8,-2.21,-10.23,-11.45,0,*5C
1508976170.94,25580,12.0,74018.3,-2.19,-11.89,-15.39,0,*5F
1508976172.15,25581,12.0,74012.8,-2.19,-19.51,-22.93,0,*57
1508976173.35,25582,12.0,74020.3,-2.19,-24.93,-27.07,0,*5C
1508976174.61,25583,12.0,74032.5,-2.21,-25.39,-28.09,0,*56
1508976175.89,25584,12.0,74036.3,-2.21,-26.77,-26.71,0,*59
1508976177.16,25585,12.0,74034.8,-2.21,-25.39,-22.47,0,*50
1508976178.39,25586,12.0,74022.8,-2.19,-20.99,-22.97,0,*5A
1508976179.62,25587,12.0,74024.5,-2.19,-23.65,-27.77,0,*50
1508976180.82,25588,12.0,74036.3,-2.19,-27.55,-25.39,0,*50
1508976182.05,25589,12.0,74022.0,-2.19,-23.99,-21.39,0,*51
1508976183.29,25590,12.0,74030.0,-2.23,-20.69,-18.93,0,*56
1508976184.54,25591,12.0,74024.3,-2.21,-21.09,-15.89,0,*54
1508976185.79,25592,12.0,74026.8,-2.21,-14.65,-11.77,0,*5E
1508976187.08,25593,12.0,74026.0,-2.21,-11.77,-11.07,0,*5E
1508976188.31,25594,12.0,74024.8,-2.21,-10.85,-10.09,0,*5A
1508976189.56,25595,12.0,74024.5,-2.21,-10.35,-10.15,0,*5D
1508976190.78,25596,12.0,74012.3,-2.21,-9.27,-8.93,0,*52
1508976191.98,25597,12.0,74024.5,-2.19,-8.45,-9.79,0,*58
1508976193.18,25598,12.0,74024.0,-2.19,-8.89,-9.79,0,*57
1508976194.41,25599,12.0,74026.8,-2.19,-9.31,-10.67,0,*63
1508976195.66,25600,12.0,74010.0,-2.19,-11.55,-12.65,0,*5B
1508976196.91,25601,12.0,74028.8,-2.19,-12.61,-13.37,0,*58
1508976198.12,25602,12.0,74032.0,-2.19,-13.73,-14.89,0,*5B
1508976199.35,25603,12.0,74012.0,-2.19,-15.63,-15.89,0,*5C
1508976200.62,25604,12.0,74024.8,-2.17,-17.63,-14.43,0,*50
1508976201.82,25605,12.0,74002.8,-2.19,-13.93,-9.01,0,*6E
1508976203.04,25606,12.0,74002.8,-2.19,-8.03,-6.31,0,*52
1508976204.26,25607,12.0,74004.3,-2.19,-6.05,-5.31,0,*58
1508976205.47,25608,12.0,74018.8,-2.19,-5.27,-5.43,0,*51
1508976206.69,25609,12.0,74012.8,-2.15,-5.65,-6.69,0,*51
1508976207.93,25610,12.0,74012.3,-2.17,-7.35,-8.67,0,*5C
1508976209.17,25611,12.0,74038.5,-2.17,-8.17,-9.15,0,*56
1508976210.42,25612,12.0,74030.8,-2.17,-9.97,-11.07,0,*66
1508976211.65,25613,12.0,74030.0,-2.17,-12.39,-12.97,0,*53
1508976212.88,25614,12.0,74030.5,-2.17,-11.01,-10.49,0,*5D
1508976214.11,25615,12.0,74038.0,-2.15,-9.23,-9.61,0,*55
1508976215.33,25616,12.0,74036.8,-2.13,-8.55,-9.05,0,*52
1508976216.55,25617,12.0,74038.5,-2.15,-8.03,-9.27,0,*56
1508976217.77,25618,12.0,74050.5,-2.15,-8.89,-10.35,0,*60
1508976218.98,25619,12.0,74050.8,-2.15,-10.19,-12.39,0,*5F
1508976220.22,25620,12.0,74050.3,-2.15,-14.55,-15.99,0,*54
1508976221.45,25621,12.0,74046.0,-2.15,-17.69,-19.23,0,*54
1508976222.71,25622,12.0,74048.5,-2.15,-20.49,-23.53,0,*5F
1508976223.95,25623,12.0,74048.0,-2.15,-24.71,-24.35,0,*56
1508976225.18,25624,12.0,74038.0,-2.15,-29.45,-23.29,0,*51
1508976226.42,25625,12.0,74034.5,-2.15,-24.67,-19.75,0,*5D
1508976227.66,25626,12.0,74024.5,-2.17,-23.75,-20.25,0,*57
1508976228.92,25627,12.0,74012.5,-2.17,-24.05,-17.63,0,*50
1508976230.15,25628,12.0,74010.3,-2.17,-18.45,-11.41,0,*52
1508976231.38,25629,12.0,73992.5,-2.19,-13.19,-9.45,0,*62
1508976232.64,25630,12.0,73996.8,-2.17,-9.49,-7.91,0,*5D
1508976233.87,25631,12.0,74010.8,-2.17,-6.81,-5.51,0,*59
1508976235.12,25632,12.0,74010.3,-2.17,-5.27,-4.57,0,*52
1508976236.33,25633,12.0,74002.5,-2.17,-4.37,-4.09,0,*58
1508976237.56,25634,12.0,74010.5,-2.17,-4.21,-3.79,0,*58
1508976238.79,25635,12.0,74010.8,-2.15,-3.83,-3.59,0,*56
1508976240.03,25636,12.0,74028.8,-2.15,-3.71,-3.47,0,*57
1508976241.25,25637,12.0,74016.5,-2.15,-3.47,-3.35,0,*56
1508976242.5,25638,12.0,74016.0,-2.13,-3.43,-3.39,0,*57
1508976243.72,25639,12.0,74010.8,-2.13,-3.31,-3.39,0,*53
1508976244.98,25640,12.0,74020.5,-2.13,-3.51,-3.63,0,*54
1508976246.23,25641,12.0,74036.5,-2.13,-3.63,-3.83,0,*5A
1508976247.46,25642,12.0,74040.0,-2.15,-4.01,-4.37,0,*54
1508976248.68,25643,12.0,74032.5,-2.13,-4.41,-4.29,0,*58
1508976249.9,25644,12.0,74020.0,-2.13,-4.33,-4.33,0,*51
1508976251.12,25645,12.0,74028.5,-2.13,-4.45,-4.29,0,*5A
1508976252.33,25646,12.0,74022.0,-2.11,-4.37,-4.25,0,*52
1508976253.56,25647,12.0,74010.5,-2.11,-4.17,-4.13,0,*54
1508976254.75,25648,12.0,74018.5,-2.09,-4.13,-4.25,0,*53
1508976255.98,25649,12.0,74030.5,-2.09,-4.01,-4.57,0,*54
1508976257.2,25650,12.0,74038.5,-2.11,-4.29,-6.05,0,*5A
1508976258.45,25651,12.0,74042.3,-2.11,-5.81,-8.89,0,*52
1508976259.68,25652,12.0,74038.3,-2.09,-8.71,-10.79,0,*6C
1508976260.94,25653,12.0,74036.5,-2.11,-9.19,-9.53,0,*5B
1508976262.15,25654,12.0,74038.3,-2.09,-8.71,-10.49,0,*69
1508976263.43,25655,12.0,74040.8,-2.11,-10.79,-14.93,0,*53
1508976264.64,25656,12.0,74046.8,-2.09,-14.19,-16.37,0,*57
1508976265.87,25657,12.0,74042.8,-2.11,-13.07,-16.41,0,*56
1508976267.07,25658,12.0,74044.3,-2.09,-17.87,-22.67,0,*5F
1508976268.31,25659,12.0,74046.8,-2.09,-21.93,-23.19,0,*56
1508976269.51,25660,12.0,74048.8,-2.09,-27.93,-29.95,0,*54
1508976270.74,25661,12.0,74048.5,-2.09,-27.13,-28.43,0,*57
1508976272.0,25662,12.0,74046.0,-2.11,-26.45,-27.23,0,*56
1508976273.25,25663,12.0,74040.3,-2.11,-26.45,-26.13,0,*55
1508976274.54,25664,12.0,74046.5,-2.11,-28.79,-24.71,0,*55
1508976275.82,25665,12.0,74036.5,-2.11,-26.55,-23.03,0,*56
1508976277.08,25666,12.0,74046.3,-2.13,-26.29,-22.57,0,*5C
1508976278.34,25667,12.0,74042.0,-2.13,-26.61,-20.83,0,*5A
1508976279.58,25668,12.0,74028.5,-2.13,-25.91,-21.57,0,*51
1508976280.84,25669,12.0,74032.0,-2.13,-25.03,-21.77,0,*59
1508976282.12,25670,12.0,74026.3,-2.13,-23.65,-23.19,0,*5D
1508976283.38,25671,12.0,74012.0,-2.13,-23.89,-25.81,0,*59
1508976284.59,25672,12.0,74012.0,-2.15,-25.65,-26.49,0,*5F
1508976285.84,25673,12.0,74022.8,-2.15,-26.33,-23.95,0,*5A
1508976287.1,25674,12.0,74030.3,-2.13,-21.93,-16.31,0,*5E
1508976288.33,25675,12.0,74032.8,-2.13,-14.69,-10.27,0,*5D
1508976289.59,25676,12.0,74022.5,-2.13,-11.67,-12.97,0,*5C
1508976290.88,25677,12.0,74024.0,-2.13,-13.83,-12.79,0,*55
1508976292.16,25678,12.0,74032.8,-2.13,-12.53,-14.79,0,*50
1508976293.45,25679,12.0,74030.8,-2.13,-13.37,-14.97,0,*52
1508976294.69,25680,12.0,74028.0,-2.13,-14.23,-15.25,0,*5E
1508976295.96,25681,12.0,74036.8,-2.15,-13.83,-12.61,0,*53
1508976297.21,25682,12.0,74032.0,-2.15,-10.75,-9.41,0,*62
1508976298.46,25683,12.0,74042.8,-2.13,-8.81,-7.87,0,*53
1508976299.71,25684,12.0,74028.3,-2.15,-7.61,-7.61,0,*5B
1508976300.95,25685,12.0,74034.3,-2.13,-8.37,-10.31,0,*63
1508976302.2,25686,12.0,74036.0,-2.13,-12.53,-14.29,0,*54
1508976303.49,25687,12.0,74044.8,-2.13,-14.05,-12.79,0,*53
1508976304.75,25688,12.0,74036.8,-2.13,-12.35,-14.29,0,*5A
1508976306.04,25689,12.0,74036.8,-2.13,-14.51,-13.97,0,*5D
1508976307.3,25690,12.0,74024.5,-2.13,-11.97,-10.97,0,*59
1508976308.56,25691,12.0,74046.5,-2.13,-9.57,-9.11,0,*5B
1508976309.78,25692,12.0,74040.0,-2.13,-9.75,-9.19,0,*50
1508976311.03,25693,12.0,74042.0,-2.13,-9.11,-8.41,0,*5F
1508976312.25,25694,12.0,74046.0,-2.13,-8.41,-7.49,0,*5B
1508976313.49,25695,12.0,74044.0,-2.11,-8.21,-7.39,0,*59
1508976314.72,25696,12.0,74044.0,-2.11,-8.63,-7.15,0,*52
1508976315.97,25697,12.0,74050.3,-2.11,-7.19,-5.81,0,*5E
1508976317.22,25698,12.0,74050.8,-2.11,-5.81,-4.65,0,*59
1508976318.46,25699,12.0,74026.3,-2.09,-5.27,-4.77,0,*5E
1508976319.74,25700,12.0,74022.8,-2.11,-5.07,-4.77,0,*54
1508976320.98,25701,12.0,74032.3,-2.09,-5.07,-4.93,0,*56
1508976322.23,25702,12.0,74046.0,-2.11,-5.43,-5.15,0,*53
1508976323.43,25703,12.0,74044.5,-2.09,-7.19,-6.39,0,*5B
1508976324.68,25704,12.0,74046.0,-2.07,-8.59,-5.89,0,*51
1508976325.9,25705,12.0,74048.5,-2.09,-7.53,-4.81,0,*52
1508976327.09,25706,12.0,74046.8,-2.09,-5.97,-4.17,0,*54
1508976328.34,25707,12.0,74046.8,-2.07,-5.23,-3.87,0,*5A
1508976329.53,25708,12.0,74044.0,-2.05,-4.45,-3.83,0,*52
1508976330.75,25709,12.0,74048.0,-2.07,-4.09,-3.83,0,*59
1508976331.97,25710,12.0,74044.5,-2.07,-4.25,-4.09,0,*5A
1508976333.2,25711,12.0,74034.5,-2.07,-4.61,-4.21,0,*51
1508976334.45,25712,12.0,74038.5,-2.07,-4.09,-3.59,0,*54
1508976335.67,25713,12.0,74050.0,-2.05,-3.55,-3.11,0,*55
1508976336.89,25714,12.0,74050.3,-2.07,-3.19,-3.07,0,*5F
1508976338.12,25715,12.0,74050.8,-2.07,-3.31,-3.31,0,*51
1508976339.37,25716,12.0,74060.3,-2.07,-3.43,-3.35,0,*53
1508976340.61,25717,12.0,74052.0,-2.05,-3.43,-3.47,0,*55
1508976341.84,25718,12.0,74048.5,-2.05,-3.55,-3.55,0,*5E
1508976343.05,25719,12.0,74046.8,-2.05,-3.87,-3.75,0,*52
1508976344.27,25720,12.0,74048.5,-2.05,-4.09,-3.59,0,*57
1508976345.46,25721,12.0,74018.8,-2.05,-3.87,-3.35,0,*5D
1508976346.69,25722,12.0,74020.8,-2.05,-3.59,-3.19,0,*53
1508976347.88,25723,12.0,74022.8,-2.05,-3.31,-3.19,0,*5C
1508976349.08,25724,12.0,74026.8,-2.05,-3.19,-3.11,0,*59
1508976350.27,25725,12.0,74016.3,-2.05,-2.99,-2.87,0,*5F
1508976351.47,25726,12.0,74034.8,-2.05,-2.87,-2.87,0,*53
1508976352.67,25727,12.0,74024.5,-2.05,-2.87,-2.95,0,*51
1508976353.87,25728,12.0,74032.8,-2.01,-2.95,-3.07,0,*53
1508976355.08,25729,12.0,74036.5,-2.01,-3.07,-3.51,0,*5B
1508976356.3,25730,12.0,74032.5,-2.01,-3.71,-4.33,0,*51
1508976357.49,25731,12.0,74014.8,-2.01,-4.33,-4.99,0,*51
1508976358.71,25732,12.0,74004.3,-1.99,-5.35,-6.09,0,*5C
1508976359.92,25733,12.0,74004.5,-2.01,-6.01,-7.05,0,*56
1508976361.12,25734,12.0,74014.3,-2.01,-7.11,-8.85,0,*56
1508976362.37,25735,12.0,74014.8,-1.99,-9.11,-9.31,0,*55
1508976363.59,25736,12.0,73992.3,-1.99,-8.55,-8.29,0,*5F
1508976364.83,25737,12.0,74002.3,-2.01,-7.99,-6.97,0,*58
1508976366.05,25738,12.0,74002.3,-2.01,-6.09,-5.77,0,*52
1508976367.28,25739,12.0,74012.0,-1.99,-5.97,-6.51,0,*52
1508976368.5,25740,12.0,73996.0,-1.99,-9.05,-9.75,0,*52
1508976369.74,25741,12.0,73984.5,-1.99,-8.25,-7.05,0,*59
1508976370.97,25742,12.0,73998.8,-2.01,-10.41,-8.85,0,*64
1508976372.19,25743,12.0,74000.3,-2.01,-9.11,-8.55,0,*55
1508976373.44,25744,12.0,74004.0,-1.99,-8.41,-7.57,0,*59
1508976374.68,25745,12.0,74014.8,-1.99,-6.55,-5.77,0,*53
1508976375.96,25746,12.0,74012.5,-1.99,-5.77,-5.07,0,*54
1508976377.24,25747,12.0,74012.8,-1.99,-5.23,-4.69,0,*5D
1508976378.46,25748,12.0,74008.0,-1.99,-4.57,-4.33,0,*5F
1508976379.68,25749,12.0,74018.8,-1.99,-4.33,-4.33,0,*5C
1508976380.87,25750,12.0,74012.3,-1.97,-4.41,-4.45,0,*5E
1508976382.06,25751,12.0,74010.5,-2.01,-4.49,-4.49,0,*57
1508976383.28,25752,12.0,74002.3,-1.99,-4.41,-4.41,0,*56
1508976384.47,25753,12.0,73998.8,-1.97,-4.37,-4.37,0,*59
1508976385.66,25754,12.0,74000.3,-1.97,-4.29,-4.53,0,*53
1508976386.85,25755,12.0,74020.5,-1.97,-4.41,-5.47,0,*58
1508976388.08,25756,12.0,74026.8,-1.97,-6.13,-11.93,0,*62
1508976389.36,25757,12.0,74008.0,-1.99,-12.57,-14.51,0,*53
1508976390.62,25758,12.0,74020.8,-1.99,-13.29,-13.51,0,*53
1508976391.88,25759,12.0,74022.8,-1.99,-11.97,-10.31,0,*50
1508976393.11,25760,12.0,74020.5,-1.99,-9.93,-8.81,0,*55
1508976394.35,25761,12.0,74024.8,-1.99,-9.57,-7.19,0,*52
1508976395.6,25762,12.0,74036.8,-1.97,-7.99,-5.61,0,*5E
1508976396.81,25763,12.0,74036.5,-1.97,-7.05,-6.05,0,*5B
1508976398.02,25764,12.0,74030.8,-1.97,-8.81,-6.35,0,*5C
1508976399.27,25765,12.0,74030.5,-1.97,-7.57,-5.69,0,*53
1508976400.52,25766,12.0,74034.5,-1.97,-5.69,-5.03,0,*53
1508976401.71,25767,12.0,74038.8,-1.97,-5.43,-4.65,0,*5B
1508976402.93,25768,12.0,74040.0,-1.97,-5.19,-4.57,0,*5A
1508976404.18,25769,12.0,74042.3,-1.99,-5.23,-4.99,0,*5E
1508976405.4,25770,12.0,74042.5,-1.97,-5.07,-4.57,0,*5C
1508976406.6,25771,12.0,74032.5,-1.97,-4.65,-4.25,0,*5D
1508976407.83,25772,12.0,74030.0,-1.95,-4.13,-3.67,0,*5C
1508976409.04,25773,12.0,74042.3,-1.97,-3.87,-3.67,0,*55
1508976410.27,25774,12.0,74032.0,-1.99,-3.95,-3.83,0,*55
1508976411.53,25775,12.0,74038.3,-1.99,-3.71,-3.71,0,*53
1508976412.75,25776,12.0,74038.3,-2.01,-3.71,-3.91,0,*5C
1508976413.99,25777,12.0,74030.0,-1.99,-3.91,-4.21,0,*5D
1508976415.21,25778,12.0,74020.8,-1.99,-4.17,-4.33,0,*58
1508976416.45,25779,12.0,74024.3,-1.99,-4.41,-4.85,0,*57
1508976417.72,25780,12.0,74040.3,-1.99,-4.85,-5.61,0,*52
1508976418.96,25781,12.0,74034.0,-1.99,-5.61,-6.89,0,*5D
1508976420.21,25782,12.0,74040.0,-1.99,-6.81,-9.45,0,*5C
1508976421.46,25783,12.0,74050.0,-1.97,-9.53,-11.07,0,*6C
1508976422.66,25784,12.0,74050.3,-1.97,-10.57,-10.23,0,*50
1508976423.92,25785,12.0,74042.3,-1.99,-9.05,-7.43,0,*50
1508976425.16,25786,12.0,74042.5,-1.99,-7.49,-8.03,0,*5E
1508976426.4,25787,12.0,74038.3,-1.99,-8.25,-11.33,0,*61
1508976427.66,25788,12.0,74050.5,-2.01,-12.07,-14.05,0,*57
1508976428.92,25789,12.0,74042.0,-1.99,-13.97,-14.23,0,*58
1508976430.17,25790,12.0,74044.0,-1.99,-14.69,-14.93,0,*5D
1508976431.4,25791,12.0,74046.3,-1.97,-16.65,-16.41,0,*51
1508976432.63,25792,12.0,74046.3,-1.97,-18.49,-14.79,0,*5B
1508976433.9,25793,12.0,74034.0,-1.99,-17.45,-12.93,0,*55
1508976435.16,25794,12.0,74032.5,-2.01,-14.43,-10.41,0,*58
1508976436.38,25795,12.0,74042.3,-1.99,-10.01,-8.17,0,*63
1508976437.6,25796,12.0,74050.0,-2.01,-7.69,-8.37,0,*58
1508976438.88,25797,12.0,74042.8,-1.99,-9.49,-12.71,0,*6E
1508976440.14,25798,12.0,74042.5,-1.99,-12.53,-15.11,0,*51
1508976441.37,25799,12.0,74052.8,-2.01,-13.83,-17.49,0,*51
1508976442.61,25800,12.0,74038.8,-2.01,-17.45,-21.47,0,*5B
1508976443.82,25801,12.0,74034.5,-2.01,-20.89,-23.09,0,*56
1508976445.08,25802,12.0,74040.5,-2.01,-22.21,-25.03,0,*59
1508976446.31,25803,12.0,74036.5,-2.01,-26.61,-26.33,0,*58
1508976447.56,25804,12.0,74026.0,-2.01,-23.85,-22.21,0,*57
1508976448.78,25805,12.0,74024.5,-2.05,-19.81,-16.89,0,*5A
1508976450.04,25806,12.0,74018.3,-2.07,-14.97,-15.63,0,*56
1508976451.27,25807,12.0,74020.8,-2.07,-18.25,-13.69,0,*5E
1508976452.55,25808,12.0,74032.0,-2.07,-12.15,-10.63,0,*51
1508976453.78,25809,12.0,74036.0,-2.07,-9.67,-10.45,0,*6B
1508976455.04,25810,12.0,74032.0,-2.07,-9.15,-9.93,0,*55
1508976456.31,25811,12.0,74040.5,-2.07,-10.75,-11.45,0,*58
1508976457.59,25812,12.0,74046.0,-2.07,-11.89,-10.79,0,*57
1508976458.82,25813,12.0,74042.8,-2.07,-10.31,-9.79,0,*6C
1508976460.07,25814,12.0,74032.0,-2.07,-10.53,-9.11,0,*61
1508976461.3,25815,12.0,74036.3,-2.07,-8.67,-7.87,0,*5F
1508976462.52,25816,12.0,74034.3,-2.07,-7.53,-7.49,0,*56
1508976463.77,25817,12.0,74024.5,-2.05,-7.35,-7.73,0,*5C
1508976465.0,25818,12.0,74004.5,-2.07,-7.15,-7.87,0,*58
1508976466.2,25819,12.0,74026.0,-2.05,-7.53,-8.89,0,*58
1508976467.48,25820,12.0,74014.8,-2.07,-9.53,-10.79,0,*68
1508976468.74,25821,12.0,74040.8,-2.07,-10.67,-10.05,0,*5D
1508976469.98,25822,12.0,74026.0,-2.07,-10.35,-9.79,0,*6A
1508976471.2,25823,12.0,74024.3,-2.09,-9.41,-9.31,0,*52
1508976472.45,25824,12.0,74036.3,-2.07,-9.41,-8.41,0,*5D
1508976473.65,25825,12.0,74040.5,-2.05,-8.71,-7.87,0,*59
1508976474.88,25826,12.0,74038.5,-2.07,-8.45,-7.53,0,*56
1508976476.13,25827,12.0,74038.5,-2.07,-7.39,-5.55,0,*57
1508976477.4,25828,12.0,74024.3,-2.07,-5.69,-5.11,0,*5F
1508976478.68,25829,12.0,74020.8,-2.07,-5.15,-5.11,0,*55
1508976479.91,25830,12.0,74024.3,-2.05,-5.15,-5.39,0,*55
1508976481.17,25831,12.0,74018.3,-2.07,-5.15,-5.55,0,*5C
1508976482.42,25832,12.0,74016.5,-2.05,-5.03,-5.69,0,*55
1508976483.66,25833,12.0,74030.3,-2.07,-5.11,-6.69,0,*56
1508976484.89,25834,12.0,74038.5,-2.07,-6.01,-8.85,0,*5F
1508976486.17,25835,12.0,74034.0,-2.07,-8.03,-11.63,0,*62
1508976487.4,25836,12.0,74032.5,-2.07,-11.15,-15.15,0,*5B
1508976488.61,25837,12.0,74032.8,-2.05,-14.61,-18.41,0,*52
1508976489.87,25838,12.0,74036.8,-2.07,-17.55,-20.59,0,*59
1508976491.17,25839,12.0,74024.8,-2.07,-18.93,-21.87,0,*5F
1508976492.4,25840,12.0,74014.5,-2.07,-20.93,-23.09,0,*5E
1508976493.66,25841,12.0,74022.3,-2.07,-23.39,-26.33,0,*50
1508976494.93,25842,12.0,74020.5,-2.07,-23.43,-24.87,0,*53
1508976496.16,25843,12.0,74030.8,-2.09,-23.99,-26.07,0,*51
1508976497.42,25844,12.0,74030.8,-2.11,-23.43,-24.25,0,*5A
1508976498.65,25845,12.0,74026.5,-2.09,-21.23,-24.31,0,*53
1508976499.94,25846,12.0,74030.8,-2.11,-21.67,-23.29,0,*57
1508976501.19,25847,12.0,74026.8,-2.11,-21.23,-23.59,0,*51
1508976502.42,25848,12.0,74028.8,-2.11,-22.07,-25.09,0,*58
1508976503.68,25849,12.0,74020.8,-2.11,-22.21,-24.97,0,*5B
1508976504.94,25850,12.0,74028.8,-2.11,-23.85,-27.07,0,*56
1508976506.22,25851,12.0,74036.5,-2.13,-26.93,-28.47,0,*5C
1508976507.47,25852,12.0,74040.3,-2.13,-25.13,-26.93,0,*53
1508976508.73,25853,12.0,74042.3,-2.17,-24.97,-27.35,0,*56
1508976509.94,25854,12.0,74026.0,-2.19,-27.55,-29.13,0,*58
1508976511.23,25855,12.0,74028.5,-2.17,-27.39,-27.99,0,*51